Location: Arbon
(43.0005°N, 0.7472°E)
Time: 21:59:50
(UTC+00:00)

Explorer 7 - Pass Details

Date: 04 December 2020
Orbit: 484 x 678 km, 50.3° (Epoch: 25 January)

Event Time Altitude Azimuth Distance (km) Brightness Sun altitude
Rises 04:58:10 0° 300° (WNW) 2,829 - -23.7°
Reaches altitude 10° 05:00:32 10° 302° (WNW) 1,891 - -23.3°
Exits shadow 05:04:35 68° 359° (N) 597 6.8 -22.6°
Maximum altitude 05:04:50 71° 27° (NNE) 587 6.9 -22.5°
Drops below altitude 10° 05:08:50 10° 112° (ESE) 1,767 10.5 -21.8°
Sets 05:10:59 0° 114° (ESE) 2,626 11.7 -21.4°
